M I D A S
Marine Information and Data Acquisition System
Tripno 641 of the Zeeleeuw from 2004-02-03 07:40:56 to 2004-02-03 15:59:30
Back to CruiseResearch ActivitiesStationsMapUnderway DataData graphs

EquipmentUnitsComments
TimeDGPSUTC
LatitudeDGPSDM.mWGS84
LongitudeDGPSDM.mWGS84
SpeedMeteo Stationm/sRelative wind speed
DirectionMeteo StationdegRelative wind direction
TemperatureMeteo Stationdeg CelciusAir temperature
PressureMeteo StationPaAtmospheric pressure
HumidityMeteo Station%Relative humidity
Missing or incorrect values are displayed as -999
Metereological data collected by the RV Zeeleeuw from 2004-02-03 07:40:56 to 2004-02-03 15:59:30
                                                                                    Next 1000 lines
Time Latitude Longitude Speed Direction Temperature Pressure Humidity
2004-02-03 07:41:04 51°13.593 2°56.107 4.4 95 12.6 102250 82
2004-02-03 07:41:08 51°13.592 2°56.108 5.1 95 12.6 102240 82
2004-02-03 07:41:14 51°13.592 2°56.108 3 66 12.6 102240 82
2004-02-03 07:41:20 51°13.592 2°56.108 4.4 105 12.7 102240 82
2004-02-03 07:41:24 51°13.592 2°56.108 3.9 119 12.7 102240 82
2004-02-03 07:41:30 51°13.592 2°56.108 3.2 95 12.7 102250 82
2004-02-03 07:41:34 51°13.592 2°56.108 5.2 125 12.7 102250 82
2004-02-03 07:41:39 51°13.592 2°56.108 4.6 131 12.7 102240 82
2004-02-03 07:41:44 51°13.592 2°56.107 5.7 112 12.7 102240 82
2004-02-03 07:41:48 51°13.592 2°56.108 5.8 111 12.7 102240 82
2004-02-03 07:41:54 51°13.592 2°56.107 5.4 134 12.7 102240 82
2004-02-03 07:41:59 51°13.592 2°56.107 5.4 123 12.7 102250 82
2004-02-03 07:42:04 51°13.591 2°56.107 4.9 90 12.7 102250 82
2004-02-03 07:42:08 51°13.591 2°56.107 3.3 107 12.6 102250 82
2004-02-03 07:42:14 51°13.592 2°56.106 4.7 100 12.6 102250 82
2004-02-03 07:42:19 51°13.592 2°56.104 4.1 100 12.7 102250 82
2004-02-03 07:42:24 51°13.592 2°56.101 4.2 102 12.7 102250 82
2004-02-03 07:42:30 51°13.593 2°56.097 4 118 12.6 102250 82
2004-02-03 07:42:34 51°13.594 2°56.094 5.3 115 12.6 102250 82
2004-02-03 07:42:40 51°13.595 2°56.089 4.8 131 12.7 102250 82
2004-02-03 07:42:45 51°13.596 2°56.085 3.5 158 12.7 102250 82
2004-02-03 07:42:50 51°13.597 2°56.08 4 117 12.7 102250 82
2004-02-03 07:42:55 51°13.599 2°56.075 3.4 226 12.7 102250 82
2004-02-03 07:43:00 51°13.601 2°56.07 5.5 150 12.7 102250 82
2004-02-03 07:43:04 51°13.602 2°56.065 4.4 112 12.7 102250 82
2004-02-03 07:43:10 51°13.604 2°56.058 4.4 120 12.7 102250 82
2004-02-03 07:43:15 51°13.606 2°56.052 7.1 137 12.7 102250 82
2004-02-03 07:43:20 51°13.608 2°56.046 5.2 115 12.7 102240 82
2004-02-03 07:43:24 51°13.61 2°56.04 5.7 111 12.7 102240 82
2004-02-03 07:43:30 51°13.612 2°56.032 3.7 126 12.7 102250 82
2004-02-03 07:43:35 51°13.614 2°56.025 5 117 12.7 102250 82
2004-02-03 07:43:40 51°13.617 2°56.017 3.6 123 12.7 102240 82
2004-02-03 07:43:45 51°13.619 2°56.01 3.8 132 12.7 102240 82
2004-02-03 07:43:50 51°13.621 2°56.002 4.4 113 12.7 102250 82
2004-02-03 07:43:55 51°13.623 2°55.994 3.7 123 12.7 102250 82
2004-02-03 07:44:00 51°13.626 2°55.986 3.1 113 12.7 102240 82
2004-02-03 07:44:04 51°13.627 2°55.98 3.3 146 12.7 102240 82
2004-02-03 07:44:10 51°13.63 2°55.97 3.7 137 12.7 102240 82
2004-02-03 07:44:15 51°13.632 2°55.962 3.8 97 12.7 102240 82
2004-02-03 07:44:20 51°13.635 2°55.954 2.7 104 12.7 102240 82
2004-02-03 07:44:24 51°13.637 2°55.948 2.1 123 12.7 102240 82
2004-02-03 07:44:30 51°13.64 2°55.938 1.9 130 12.7 102240 82
2004-02-03 07:44:35 51°13.642 2°55.929 3.4 124 12.7 102240 82
2004-02-03 07:44:40 51°13.645 2°55.92 2.6 132 12.7 102250 82
2004-02-03 07:44:45 51°13.648 2°55.911 3.3 44 12.7 102250 82
2004-02-03 07:44:50 51°13.651 2°55.901 2.5 140 12.7 102250 82
2004-02-03 07:44:55 51°13.653 2°55.892 2.1 144 12.7 102250 82
2004-02-03 07:45:00 51°13.655 2°55.882 2.8 141 12.7 102250 82
2004-02-03 07:45:04 51°13.657 2°55.875 3 172 12.7 102250 82
2004-02-03 07:45:10 51°13.66 2°55.863 2 160 12.7 102240 82
2004-02-03 07:45:15 51°13.662 2°55.854 4.1 142 12.7 102240 82
2004-02-03 07:45:20 51°13.663 2°55.844 4.7 123 12.7 102240 82
2004-02-03 07:45:24 51°13.665 2°55.837 3.4 132 12.7 102240 82
2004-02-03 07:45:30 51°13.667 2°55.826 4.3 123 12.7 102240 82
2004-02-03 07:45:34 51°13.668 2°55.818 5.5 138 12.7 102240 82
2004-02-03 07:45:39 51°13.669 2°55.809 4.3 147 12.7 102240 82
2004-02-03 07:45:44 51°13.67 2°55.8 5.6 141 12.7 102240 82
2004-02-03 07:45:48 51°13.67 2°55.793 5.3 152 12.7 102240 82
2004-02-03 07:45:54 51°13.672 2°55.785 6.2 138 12.7 102240 82
2004-02-03 07:45:59 51°13.673 2°55.779 6.3 133 12.7 102240 82
2004-02-03 07:46:04 51°13.673 2°55.775 6.5 152 12.7 102240 82
2004-02-03 07:46:10 51°13.674 2°55.772 6.1 129 12.7 102240 82
2004-02-03 07:46:14 51°13.675 2°55.772 4.2 154 12.7 102240 82
2004-02-03 07:46:18 51°13.675 2°55.772 3.9 147 12.7 102240 82
2004-02-03 07:46:24 51°13.677 2°55.773 4.5 139 12.7 102240 82
2004-02-03 07:46:29 51°13.678 2°55.776 4.5 166 12.7 102240 82
2004-02-03 07:46:34 51°13.681 2°55.779 2.6 143 12.7 102240 82
2004-02-03 07:46:38 51°13.684 2°55.782 2 193 12.7 102240 82
2004-02-03 07:46:44 51°13.689 2°55.785 2.4 201 12.7 102240 82
2004-02-03 07:46:48 51°13.693 2°55.786 1.6 295 12.7 102240 82
2004-02-03 07:46:54 51°13.701 2°55.786 1.5 261 12.7 102240 82
2004-02-03 07:46:59 51°13.707 2°55.784 2.2 260 12.7 102240 82
2004-02-03 07:47:04 51°13.714 2°55.78 2.8 272 12.7 102240 82
2004-02-03 07:47:10 51°13.722 2°55.773 2.7 250 12.7 102240 82
2004-02-03 07:47:14 51°13.727 2°55.767 4.2 300 12.7 102240 82
2004-02-03 07:47:20 51°13.733 2°55.759 2.8 287 12.7 102240 82
2004-02-03 07:47:24 51°13.737 2°55.753 2.9 263 12.7 102240 82
2004-02-03 07:47:28 51°13.741 2°55.747 2.8 265 12.7 102240 82
2004-02-03 07:47:34 51°13.747 2°55.737 3.3 300 12.7 102240 82
2004-02-03 07:47:39 51°13.752 2°55.73 3 278 12.7 102240 82
2004-02-03 07:47:44 51°13.757 2°55.721 1.9 306 12.7 102240 82
2004-02-03 07:47:50 51°13.763 2°55.71 2.2 287 12.7 102240 82
2004-02-03 07:47:54 51°13.768 2°55.703 6.4 286 12.7 102240 82
2004-02-03 07:47:59 51°13.774 2°55.694 5.5 281 12.7 102240 82
2004-02-03 07:48:04 51°13.781 2°55.685 6.4 267 12.7 102240 82
2004-02-03 07:48:09 51°13.787 2°55.675 3.8 281 12.7 102230 82
2004-02-03 07:48:14 51°13.795 2°55.666 2.8 242 12.7 102230 82
2004-02-03 07:48:19 51°13.802 2°55.657 2.1 337 12.7 102250 82
2004-02-03 07:48:24 51°13.81 2°55.648 1.9 342 12.7 102250 82
2004-02-03 07:48:30 51°13.82 2°55.638 1.5 298 12.7 102240 82
2004-02-03 07:48:34 51°13.827 2°55.632 1.5 301 12.7 102240 82
2004-02-03 07:48:39 51°13.836 2°55.625 0.9 300 12.8 102240 82
2004-02-03 07:48:44 51°13.845 2°55.618 0.7 304 12.8 102240 82
2004-02-03 07:48:48 51°13.853 2°55.612 1.7 345 12.8 102240 82
2004-02-03 07:48:54 51°13.864 2°55.603 2.7 263 12.8 102240 82
2004-02-03 07:48:59 51°13.874 2°55.596 2.8 257 12.8 102230 82
2004-02-03 07:49:04 51°13.884 2°55.589 3.9 28 12.8 102230 82
2004-02-03 07:49:08 51°13.892 2°55.583 3 297 12.8 102230 82
2004-02-03 07:49:14 51°13.904 2°55.574 2.5 298 12.8 102230 82
2004-02-03 07:49:19 51°13.914 2°55.567 2.4 278 12.8 102230 82
2004-02-03 07:49:24 51°13.924 2°55.559 2.8 308 12.8 102230 82
2004-02-03 07:49:28 51°13.932 2°55.553 2.3 303 12.8 102230 82
2004-02-03 07:49:34 51°13.944 2°55.545 1.6 293 12.8 102230 82
2004-02-03 07:49:39 51°13.954 2°55.537 2.3 316 12.8 102230 82
2004-02-03 07:49:44 51°13.965 2°55.53 2 340 12.8 102230 82
2004-02-03 07:49:49 51°13.975 2°55.522 2.3 332 12.8 102230 82
2004-02-03 07:49:54 51°13.985 2°55.515 2.4 326 12.8 102230 82
2004-02-03 07:49:59 51°13.995 2°55.507 2.9 304 12.8 102230 82
2004-02-03 07:50:04 51°14.006 2°55.5 2.4 307 12.8 102230 82
2004-02-03 07:50:09 51°14.016 2°55.493 2.2 322 12.8 102230 82
2004-02-03 07:50:14 51°14.027 2°55.486 1.6 338 12.8 102230 82
2004-02-03 07:50:19 51°14.037 2°55.479 1.7 352 12.8 102230 82
2004-02-03 07:50:24 51°14.048 2°55.471 2.2 319 12.8 102230 82
2004-02-03 07:50:28 51°14.056 2°55.465 1.8 322 12.8 102240 82
2004-02-03 07:50:34 51°14.069 2°55.456 2.9 322 12.8 102240 82
2004-02-03 07:50:39 51°14.079 2°55.449 2.7 231 12.8 102240 82
2004-02-03 07:50:44 51°14.089 2°55.441 1.9 305 12.8 102240 82
2004-02-03 07:50:50 51°14.102 2°55.432 1.7 328 12.8 102230 82
2004-02-03 07:50:54 51°14.11 2°55.426 1.2 320 12.8 102230 82
2004-02-03 07:50:59 51°14.121 2°55.418 1.1 305 12.8 102230 82
2004-02-03 07:51:04 51°14.131 2°55.41 2.5 321 12.8 102230 82
2004-02-03 07:51:09 51°14.14 2°55.402 2.5 321 12.8 102230 82
2004-02-03 07:51:14 51°14.149 2°55.394 3.1 305 12.8 102230 82
2004-02-03 07:51:19 51°14.158 2°55.386 4 292 12.8 102230 82
2004-02-03 07:51:24 51°14.166 2°55.379 3.5 313 12.8 102230 82
2004-02-03 07:51:28 51°14.172 2°55.372 4.5 288 12.8 102240 82
2004-02-03 07:51:34 51°14.181 2°55.363 3.2 38 12.8 102240 82
2004-02-03 07:51:39 51°14.188 2°55.355 3.5 314 12.8 102230 82
2004-02-03 07:51:44 51°14.195 2°55.347 4 294 12.8 102230 82
2004-02-03 07:51:50 51°14.203 2°55.338 2.7 275 12.8 102240 82
2004-02-03 07:51:54 51°14.208 2°55.332 2.1 286 12.8 102240 82
2004-02-03 07:51:59 51°14.214 2°55.324 2.7 262 12.8 102240 82
2004-02-03 07:52:04 51°14.22 2°55.317 2.1 298 12.8 102240 82
2004-02-03 07:52:08 51°14.225 2°55.31 2.8 302 12.8 102240 82
2004-02-03 07:52:14 51°14.231 2°55.301 3.4 301 12.8 102240 82
2004-02-03 07:52:19 51°14.236 2°55.294 2.7 331 12.8 102240 82
2004-02-03 07:52:24 51°14.241 2°55.286 3.4 322 12.8 102240 82
2004-02-03 07:52:28 51°14.245 2°55.28 4.6 333 12.8 102240 82
2004-02-03 07:52:34 51°14.251 2°55.271 3.8 280 12.8 102240 82
2004-02-03 07:52:39 51°14.255 2°55.264 2.8 296 12.8 102240 82
2004-02-03 07:52:44 51°14.26 2°55.256 4 315 12.8 102240 82
2004-02-03 07:52:48 51°14.263 2°55.251 3.9 315 12.8 102230 82
2004-02-03 07:52:54 51°14.268 2°55.242 5 308 12.8 102230 82
2004-02-03 07:52:59 51°14.272 2°55.235 3.8 323 12.8 102230 82
2004-02-03 07:53:04 51°14.276 2°55.228 5.9 299 12.8 102230 82
2004-02-03 07:53:08 51°14.279 2°55.222 5.7 294 12.8 102230 82
2004-02-03 07:53:14 51°14.284 2°55.214 4.7 291 12.8 102230 82
2004-02-03 07:53:19 51°14.288 2°55.207 4.3 307 12.8 102240 82
2004-02-03 07:53:24 51°14.291 2°55.2 6.4 310 12.8 102240 82
2004-02-03 07:53:29 51°14.295 2°55.193 4.1 44 12.8 102240 82
2004-02-03 07:53:34 51°14.298 2°55.186 5.8 286 12.8 102240 82
2004-02-03 07:53:39 51°14.302 2°55.179 5.1 286 12.8 102240 82
2004-02-03 07:53:44 51°14.305 2°55.172 5.1 285 12.8 102240 82
2004-02-03 07:53:49 51°14.309 2°55.165 3.7 305 12.8 102240 82
2004-02-03 07:53:54 51°14.313 2°55.158 3 282 12.8 102240 82
2004-02-03 07:53:59 51°14.316 2°55.151 3.9 283 12.8 102240 82
2004-02-03 07:54:04 51°14.32 2°55.143 5.2 298 12.8 102240 82
2004-02-03 07:54:09 51°14.325 2°55.135 4.9 288 12.8 102240 82
2004-02-03 07:54:14 51°14.329 2°55.126 4.7 306 12.8 102240 82
2004-02-03 07:54:19 51°14.335 2°55.116 4.2 300 12.8 102230 82
2004-02-03 07:54:24 51°14.342 2°55.105 5.4 306 12.8 102230 82
2004-02-03 07:54:28 51°14.348 2°55.096 5.2 297 12.8 102240 82
2004-02-03 07:54:34 51°14.357 2°55.081 5.5 316 12.8 102240 82
2004-02-03 07:54:39 51°14.366 2°55.069 4.7 315 12.8 102230 82
2004-02-03 07:54:44 51°14.375 2°55.056 5.7 43 12.8 102230 82
2004-02-03 07:54:48 51°14.383 2°55.045 6.6 308 12.8 102240 82
2004-02-03 07:54:54 51°14.396 2°55.03 7.1 300 12.8 102240 82
2004-02-03 07:54:59 51°14.407 2°55.018 6.8 296 12.8 102230 82
2004-02-03 07:55:04 51°14.42 2°55.007 5.5 296 12.8 102230 82
2004-02-03 07:55:09 51°14.433 2°54.997 5.1 296 12.8 102230 82
2004-02-03 07:55:14 51°14.446 2°54.987 5.5 286 12.8 102230 82
2004-02-03 07:55:18 51°14.457 2°54.979 5 298 12.8 102230 82
2004-02-03 07:55:24 51°14.473 2°54.967 5.5 293 12.8 102230 82
2004-02-03 07:55:30 51°14.489 2°54.954 6.3 286 12.8 102230 82
2004-02-03 07:55:34 51°14.5 2°54.946 5.9 290 12.8 102230 82
2004-02-03 07:55:40 51°14.517 2°54.933 5.4 296 12.8 102240 82
2004-02-03 07:55:44 51°14.528 2°54.924 5.4 300 12.8 102240 82
2004-02-03 07:55:50 51°14.544 2°54.911 5.1 286 12.8 102240 82
2004-02-03 07:55:54 51°14.555 2°54.902 5.1 295 12.8 102240 82
2004-02-03 07:55:59 51°14.569 2°54.891 4.7 303 12.8 102230 82
2004-02-03 07:56:04 51°14.583 2°54.88 4.7 300 12.8 102230 82
2004-02-03 07:56:08 51°14.593 2°54.871 5.5 296 12.8 102230 82
2004-02-03 07:56:14 51°14.608 2°54.858 5.6 293 12.8 102230 82
2004-02-03 07:56:18 51°14.618 2°54.85 5.9 290 12.8 102230 82
2004-02-03 07:56:24 51°14.632 2°54.837 6.3 286 12.8 102230 82
2004-02-03 07:56:29 51°14.643 2°54.828 5.7 284 12.8 102230 82
2004-02-03 07:56:34 51°14.654 2°54.818 5.6 284 12.8 102230 82
2004-02-03 07:56:39 51°14.665 2°54.808 5.3 285 12.8 102240 82
2004-02-03 07:56:44 51°14.675 2°54.799 6 284 12.8 102240 82
2004-02-03 07:56:49 51°14.685 2°54.79 6 281 12.8 102240 82
2004-02-03 07:56:54 51°14.695 2°54.782 5.5 279 12.8 102240 82
2004-02-03 07:56:59 51°14.705 2°54.773 5.4 278 12.7 102240 82
2004-02-03 07:57:04 51°14.715 2°54.764 5.6 270 12.7 102240 82
2004-02-03 07:57:09 51°14.725 2°54.756 5.5 273 12.7 102230 82
2004-02-03 07:57:14 51°14.735 2°54.748 6 270 12.7 102230 82
2004-02-03 07:57:19 51°14.744 2°54.74 6.5 272 12.7 102240 82
2004-02-03 07:57:24 51°14.753 2°54.732 6.3 275 12.7 102240 82
2004-02-03 07:57:28 51°14.761 2°54.726 6 272 12.7 102240 82
2004-02-03 07:57:34 51°14.772 2°54.717 5.8 274 12.7 102240 82
2004-02-03 07:57:39 51°14.781 2°54.709 4.9 282 12.7 102230 81
2004-02-03 07:57:44 51°14.791 2°54.7 4.8 285 12.7 102230 81
2004-02-03 07:57:48 51°14.8 2°54.692 5.1 284 12.7 102230 81
2004-02-03 07:57:54 51°14.814 2°54.68 5 287 12.7 102230 81
2004-02-03 07:57:59 51°14.827 2°54.669 5.3 289 12.7 102240 82
2004-02-03 07:58:04 51°14.84 2°54.657 6.4 281 12.7 102240 82
2004-02-03 07:58:09 51°14.853 2°54.645 5.8 284 12.6 102230 82
2004-02-03 07:58:14 51°14.867 2°54.633 6.5 286 12.6 102230 82
2004-02-03 07:58:18 51°14.878 2°54.622 6.6 285 12.6 102230 81
2004-02-03 07:58:24 51°14.895 2°54.605 6.1 292 12.6 102230 81
2004-02-03 07:58:30 51°14.912 2°54.588 7.3 299 12.6 102230 81
2004-02-03 07:58:34 51°14.924 2°54.576 6.6 290 12.6 102230 81
2004-02-03 07:58:40 51°14.942 2°54.559 6.9 298 12.6 102240 82
2004-02-03 07:58:44 51°14.955 2°54.547 8.6 298 12.6 102240 82
2004-02-03 07:58:50 51°14.973 2°54.529 8 300 12.6 102230 82
2004-02-03 07:58:54 51°14.986 2°54.518 7.5 301 12.6 102230 82
2004-02-03 07:58:59 51°15.002 2°54.503 7 304 12.6 102240 82
2004-02-03 07:59:04 51°15.018 2°54.489 6.1 302 12.6 102240 82
2004-02-03 07:59:08 51°15.031 2°54.478 6.3 303 12.6 102240 82
2004-02-03 07:59:14 51°15.05 2°54.461 6.7 303 12.6 102240 82
2004-02-03 07:59:18 51°15.063 2°54.449 6.5 308 12.6 102250 82
2004-02-03 07:59:24 51°15.083 2°54.432 7.4 302 12.6 102250 82
2004-02-03 07:59:30 51°15.103 2°54.415 6.8 309 12.6 102230 82
2004-02-03 07:59:34 51°15.116 2°54.403 6.4 304 12.6 102230 82
2004-02-03 07:59:38 51°15.129 2°54.391 6.7 303 12.5 102240 82
2004-02-03 07:59:44 51°15.148 2°54.372 6.4 303 12.5 102240 82
2004-02-03 07:59:50 51°15.168 2°54.354 7.4 299 12.5 102240 81
2004-02-03 07:59:54 51°15.181 2°54.341 6.7 301 12.5 102240 81
2004-02-03 07:59:59 51°15.197 2°54.326 7.9 298 12.5 102230 81
2004-02-03 08:00:04 51°15.214 2°54.311 7.8 304 12.5 102230 81
2004-02-03 08:00:10 51°15.234 2°54.293 7.5 299 12.5 102240 81
2004-02-03 08:00:14 51°15.248 2°54.281 7.3 296 12.5 102240 81
2004-02-03 08:00:19 51°15.264 2°54.266 7.9 301 12.4 102230 81
2004-02-03 08:00:24 51°15.281 2°54.252 8 296 12.4 102230 81
2004-02-03 08:00:29 51°15.298 2°54.237 7.2 298 12.4 102240 81
2004-02-03 08:00:34 51°15.315 2°54.222 8 296 12.4 102240 81
2004-02-03 08:00:39 51°15.332 2°54.207 7.7 297 12.4 102230 81
2004-02-03 08:00:44 51°15.349 2°54.192 7.1 299 12.4 102230 81
2004-02-03 08:00:49 51°15.366 2°54.176 7.2 301 12.4 102240 81
2004-02-03 08:00:54 51°15.383 2°54.162 8.2 298 12.4 102240 81
2004-02-03 08:01:00 51°15.403 2°54.143 7.1 299 12.4 102240 81
2004-02-03 08:01:04 51°15.417 2°54.131 8.4 299 12.4 102240 81
2004-02-03 08:01:10 51°15.437 2°54.113 7.2 300 12.3 102240 81
2004-02-03 08:01:14 51°15.45 2°54.101 7.4 296 12.3 102240 81
2004-02-03 08:01:19 51°15.467 2°54.086 6.5 298 12.3 102240 81
2004-02-03 08:01:24 51°15.484 2°54.07 6.7 295 12.3 102240 81
2004-02-03 08:01:28 51°15.498 2°54.058 7.6 297 12.3 102230 81
2004-02-03 08:01:34 51°15.518 2°54.04 7.7 296 12.3 102230 81
2004-02-03 08:01:38 51°15.532 2°54.028 7.2 290 12.3 102230 81
2004-02-03 08:01:44 51°15.552 2°54.01 6.7 297 12.3 102230 81
2004-02-03 08:01:49 51°15.569 2°53.995 7.1 297 12.3 102240 81
2004-02-03 08:01:54 51°15.586 2°53.98 7.1 299 12.3 102240 81
2004-02-03 08:01:59 51°15.603 2°53.965 7.1 295 12.3 102230 81
2004-02-03 08:02:04 51°15.62 2°53.949 6.5 299 12.3 102230 81
2004-02-03 08:02:08 51°15.633 2°53.936 7.3 297 12.2 102230 81
2004-02-03 08:02:14 51°15.653 2°53.917 7.3 289 12.2 102230 81
2004-02-03 08:02:20 51°15.673 2°53.898 7.1 301 12.2 102240 81
2004-02-03 08:02:24 51°15.686 2°53.885 7.9 300 12.2 102240 81
2004-02-03 08:02:30 51°15.706 2°53.866 7.2 301 12.2 102230 81
2004-02-03 08:02:34 51°15.719 2°53.854 7 296 12.2 102230 81
2004-02-03 08:02:39 51°15.736 2°53.838 7.3 295 12.2 102240 81
2004-02-03 08:02:44 51°15.753 2°53.823 6.7 293 12.2 102240 81
2004-02-03 08:02:48 51°15.767 2°53.811 6.9 291 12.1 102240 81
2004-02-03 08:02:54 51°15.787 2°53.793 7.1 298 12.1 102240 81
2004-02-03 08:03:00 51°15.807 2°53.775 7.7 299 12.1 102230 81
2004-02-03 08:03:04 51°15.82 2°53.762 7 297 12.1 102230 81
2004-02-03 08:03:09 51°15.837 2°53.747 7.2 295 12.1 102230 81
2004-02-03 08:03:14 51°15.854 2°53.732 6.4 297 12.1 102230 81
2004-02-03 08:03:19 51°15.871 2°53.717 6.2 303 12.1 102240 81
2004-02-03 08:03:24 51°15.887 2°53.701 6.8 300 12.1 102240 81
2004-02-03 08:03:28 51°15.901 2°53.689 7.1 300 12.1 102220 82
2004-02-03 08:03:34 51°15.921 2°53.671 6.7 299 12.1 102220 82
2004-02-03 08:03:38 51°15.934 2°53.658 6.8 298 12 102230 81
2004-02-03 08:03:44 51°15.955 2°53.64 7.3 294 12 102230 81
2004-02-03 08:03:50 51°15.975 2°53.622 8 296 12 102230 81
2004-02-03 08:03:54 51°15.988 2°53.609 6.8 300 12 102230 81
2004-02-03 08:03:58 51°16.002 2°53.597 7.9 301 12 102230 81
2004-02-03 08:04:04 51°16.021 2°53.578 7.9 289 12 102230 81
2004-02-03 08:04:09 51°16.038 2°53.562 7.4 293 12 102230 81
2004-02-03 08:04:14 51°16.055 2°53.547 7.2 286 12 102230 81
2004-02-03 08:04:19 51°16.071 2°53.532 7.9 294 11.9 102230 81
2004-02-03 08:04:24 51°16.088 2°53.517 6.2 297 11.9 102230 81
2004-02-03 08:04:30 51°16.108 2°53.499 7.6 292 11.9 102230 82
2004-02-03 08:04:34 51°16.121 2°53.487 7.2 295 11.9 102230 82
2004-02-03 08:04:39 51°16.138 2°53.472 6.9 289 11.9 102230 82
2004-02-03 08:04:44 51°16.154 2°53.457 6.5 290 11.9 102230 82
2004-02-03 08:04:49 51°16.171 2°53.442 7.5 293 11.9 102220 82
2004-02-03 08:04:54 51°16.188 2°53.426 6.9 289 11.9 102220 82
2004-02-03 08:04:59 51°16.204 2°53.411 7.9 294 11.9 102230 82
2004-02-03 08:05:04 51°16.221 2°53.396 6.8 299 11.9 102230 82
2004-02-03 08:05:10 51°16.241 2°53.378 7.1 295 11.8 102170 82
2004-02-03 08:05:14 51°16.254 2°53.366 7.1 290 11.8 102170 82
2004-02-03 08:05:19 51°16.271 2°53.351 6.6 284 11.8 102170 82
2004-02-03 08:05:24 51°16.287 2°53.337 7.4 294 11.8 102170 82
2004-02-03 08:05:29 51°16.303 2°53.321 6.8 293 11.8 102170 82
2004-02-03 08:05:34 51°16.32 2°53.307 6.7 291 11.8 102170 82
2004-02-03 08:05:39 51°16.336 2°53.291 7.5 290 11.8 102170 82
2004-02-03 08:05:44 51°16.353 2°53.277 7.7 287 11.8 102170 82
2004-02-03 08:05:49 51°16.369 2°53.262 6.9 294 11.7 102170 82
2004-02-03 08:05:54 51°16.386 2°53.247 8.5 281 11.7 102170 82
2004-02-03 08:05:59 51°16.403 2°53.232 7.3 294 11.7 102170 82
2004-02-03 08:06:04 51°16.419 2°53.217 7.4 284 11.7 102170 82
2004-02-03 08:06:10 51°16.439 2°53.199 7.6 290 11.7 102170 82
2004-02-03 08:06:14 51°16.452 2°53.187 7.7 297 11.7 102170 82
2004-02-03 08:06:19 51°16.468 2°53.172 7.5 292 11.7 102170 82
2004-02-03 08:06:24 51°16.485 2°53.157 7.9 294 11.7 102170 82
2004-02-03 08:06:28 51°16.498 2°53.145 7.1 296 11.7 102170 82
2004-02-03 08:06:34 51°16.518 2°53.127 8.1 292 11.7 102170 82
2004-02-03 08:06:38 51°16.53 2°53.115 7.7 295 11.6 102170 82
2004-02-03 08:06:44 51°16.55 2°53.097 7 297 11.6 102170 82
2004-02-03 08:06:50 51°16.57 2°53.079 7.3 295 11.6 102170 82
2004-02-03 08:06:54 51°16.583 2°53.067 6.6 299 11.6 102170 82
2004-02-03 08:06:59 51°16.599 2°53.052 7.7 294 11.6 102170 82
2004-02-03 08:07:04 51°16.615 2°53.036 8.5 281 11.6 102170 82
2004-02-03 08:07:09 51°16.632 2°53.021 6.7 288 11.6 102170 82
2004-02-03 08:07:14 51°16.647 2°53.006 6.8 296 11.6 102170 82
2004-02-03 08:07:19 51°16.663 2°52.991 7.8 295 11.6 102170 82
2004-02-03 08:07:24 51°16.68 2°52.975 7.1 293 11.6 102170 82
2004-02-03 08:07:29 51°16.696 2°52.96 8.2 290 11.5 102170 82
2004-02-03 08:07:34 51°16.713 2°52.945 7 289 11.5 102170 82
2004-02-03 08:07:40 51°16.733 2°52.93 7.2 283 11.5 102170 82
2004-02-03 08:07:44 51°16.747 2°52.92 6.5 281 11.5 102170 82
2004-02-03 08:07:50 51°16.768 2°52.906 6.3 279 11.5 102170 82
2004-02-03 08:07:54 51°16.782 2°52.897 5.6 281 11.5 102170 82
2004-02-03 08:07:59 51°16.799 2°52.887 5.9 281 11.5 102160 82
2004-02-03 08:08:04 51°16.817 2°52.877 6 275 11.5 102160 82
2004-02-03 08:08:08 51°16.831 2°52.869 5.6 284 11.5 102170 82
2004-02-03 08:08:14 51°16.852 2°52.857 5 281 11.5 102170 82
2004-02-03 08:08:18 51°16.866 2°52.85 5.1 291 11.4 102170 82
2004-02-03 08:08:24 51°16.887 2°52.838 6.3 276 11.4 102170 82
2004-02-03 08:08:30 51°16.908 2°52.826 6.5 276 11.4 102170 82
2004-02-03 08:08:34 51°16.922 2°52.818 5.8 280 11.4 102170 82
2004-02-03 08:08:39 51°16.94 2°52.808 5.6 280 11.4 102180 82
2004-02-03 08:08:44 51°16.957 2°52.798 5.5 285 11.4 102180 82
2004-02-03 08:08:50 51°16.979 2°52.786 5.9 291 11.4 102170 82
2004-02-03 08:08:54 51°16.993 2°52.778 6.6 277 11.4 102170 82
2004-02-03 08:08:58 51°17.007 2°52.77 5.6 288 11.3 102170 82
2004-02-03 08:09:04 51°17.029 2°52.758 6.1 283 11.3 102170 82
2004-02-03 08:09:10 51°17.05 2°52.745 6.3 290 11.3 102170 82
2004-02-03 08:09:14 51°17.065 2°52.737 5.7 283 11.3 102170 82
2004-02-03 08:09:20 51°17.087 2°52.725 6.2 286 11.3 102170 82
2004-02-03 08:09:24 51°17.101 2°52.716 5.7 285 11.3 102170 82
2004-02-03 08:09:30 51°17.122 2°52.704 5.8 269 11.3 102160 82
2004-02-03 08:09:34 51°17.136 2°52.696 5 273 11.3 102160 82
2004-02-03 08:09:39 51°17.154 2°52.687 5.5 283 11.3 102200 82
2004-02-03 08:09:44 51°17.173 2°52.679 4.9 279 11.3 102200 82
2004-02-03 08:09:48 51°17.187 2°52.672 4.5 284 11.2 102160 82
2004-02-03 08:09:54 51°17.209 2°52.663 4.4 279 11.2 102160 82
2004-02-03 08:09:58 51°17.224 2°52.657 4.4 276 11.2 102160 82
2004-02-03 08:10:04 51°17.246 2°52.649 5.1 272 11.2 102160 82
2004-02-03 08:10:10 51°17.268 2°52.641 4.1 276 11.2 102170 82
2004-02-03 08:10:14 51°17.283 2°52.634 4.9 274 11.2 102170 82
2004-02-03 08:10:19 51°17.301 2°52.628 4.7 278 11.2 102170 82
2004-02-03 08:10:24 51°17.32 2°52.62 4.3 283 11.2 102170 82
2004-02-03 08:10:30 51°17.342 2°52.611 5.8 268 11.2 102170 82
2004-02-03 08:10:34 51°17.357 2°52.606 5 275 11.2 102170 82
2004-02-03 08:10:39 51°17.375 2°52.598 5.4 272 11.2 102170 82
2004-02-03 08:10:44 51°17.393 2°52.59 5.1 274 11.2 102170 82
2004-02-03 08:10:49 51°17.412 2°52.583 5.6 284 11.2 102160 83
2004-02-03 08:10:54 51°17.431 2°52.576 5.6 268 11.2 102160 83
2004-02-03 08:10:59 51°17.449 2°52.57 4.9 269 11.2 102170 83
2004-02-03 08:11:04 51°17.468 2°52.566 4.7 268 11.2 102170 83
2004-02-03 08:11:09 51°17.487 2°52.562 3.3 271 11.2 102170 83
2004-02-03 08:11:14 51°17.506 2°52.56 4.5 264 11.2 102170 83
2004-02-03 08:11:19 51°17.525 2°52.558 2.4 255 11.1 102170 83
2004-02-03 08:11:24 51°17.544 2°52.556 2.6 257 11.1 102170 83
2004-02-03 08:11:30 51°17.567 2°52.554 3.9 263 11.1 102170 83
2004-02-03 08:11:34 51°17.582 2°52.552 2.7 261 11.1 102170 83
2004-02-03 08:11:39 51°17.601 2°52.55 2 259 11.1 102170 83
2004-02-03 08:11:44 51°17.62 2°52.548 2.2 265 11.1 102170 83
2004-02-03 08:11:49 51°17.639 2°52.546 4.1 262 11.1 102170 83
2004-02-03 08:11:54 51°17.658 2°52.544 3.1 266 11.1 102170 83
2004-02-03 08:11:58 51°17.673 2°52.542 3 264 11.1 102170 83
2004-02-03 08:12:04 51°17.696 2°52.539 3 273 11.1 102170 83
2004-02-03 08:12:09 51°17.715 2°52.537 4.2 271 11.1 102170 83
2004-02-03 08:12:14 51°17.734 2°52.535 3.4 276 11.1 102170 83
2004-02-03 08:12:19 51°17.753 2°52.532 3.2 283 11 102160 83
2004-02-03 08:12:24 51°17.772 2°52.53 3.2 279 11 102160 83
2004-02-03 08:12:30 51°17.795 2°52.527 3.1 271 11.1 102220 83
2004-02-03 08:12:34 51°17.81 2°52.525 3.2 273 11.1 102220 83
2004-02-03 08:12:39 51°17.829 2°52.523 3.2 284 11 102170 83
2004-02-03 08:12:44 51°17.848 2°52.521 3.4 279 11 102170 83
2004-02-03 08:12:48 51°17.864 2°52.52 3.7 280 11 102170 83
2004-02-03 08:12:54 51°17.886 2°52.517 3 269 11 102170 83
2004-02-03 08:12:59 51°17.905 2°52.515 4.1 271 11 102170 83
2004-02-03 08:13:04 51°17.925 2°52.513 4.4 271 11 102170 83
2004-02-03 08:13:09 51°17.943 2°52.511 3.4 268 11 102160 83
2004-02-03 08:13:14 51°17.963 2°52.51 4.5 265 11 102160 83
2004-02-03 08:13:19 51°17.982 2°52.509 2.8 264 11 102170 83
2004-02-03 08:13:24 51°18.001 2°52.508 3.3 260 11 102170 83
2004-02-03 08:13:29 51°18.02 2°52.511 1.9 266 11 102160 83
2004-02-03 08:13:34 51°18.039 2°52.511 2.7 279 11 102160 83
2004-02-03 08:13:39 51°18.059 2°52.514 2 268 11 102170 83
2004-02-03 08:13:44 51°18.078 2°52.516 2.8 273 11 102170 83
2004-02-03 08:13:50 51°18.1 2°52.522 2.3 274 11 102170 83
2004-02-03 08:13:54 51°18.116 2°52.522 2.8 265 11 102170 83
2004-02-03 08:13:59 51°18.135 2°52.529 3.2 265 11 102180 83
2004-02-03 08:14:04 51°18.154 2°52.533 1.6 230 11 102180 83
2004-02-03 08:14:10 51°18.177 2°52.542 2.7 261 11 102180 83
2004-02-03 08:14:14 51°18.192 2°52.549 1.2 321 11 102180 83
2004-02-03 08:14:19 51°18.21 2°52.56 0.6 300 11 102180 83
2004-02-03 08:14:24 51°18.227 2°52.575 0.7 337 11 102180 83
2004-02-03 08:14:29 51°18.245 2°52.586 0.8 322 11 102190 83
2004-02-03 08:14:34 51°18.262 2°52.602 0.8 63 11 102190 83
2004-02-03 08:14:38 51°18.275 2°52.614 1.9 74 11 102190 83
2004-02-03 08:14:44 51°18.294 2°52.636 2.4 109 11 102190 83
2004-02-03 08:14:49 51°18.307 2°52.658 4.5 89 11 102180 83
2004-02-03 08:14:54 51°18.322 2°52.678 3.1 97 11 102180 83
2004-02-03 08:14:59 51°18.335 2°52.701 4.5 98 11 102180 83
2004-02-03 08:15:04 51°18.349 2°52.722 4.8 85 11 102180 83
2004-02-03 08:15:10 51°18.364 2°52.751 5 86 11 102180 84
2004-02-03 08:15:14 51°18.374 2°52.769 5 93 11 102180 84
2004-02-03 08:15:19 51°18.386 2°52.794 4.1 91 11 102170 84
2004-02-03 08:15:24 51°18.398 2°52.817 4.4 84 11 102170 84
2004-02-03 08:15:29 51°18.411 2°52.841 3.7 83 11 102180 84
2004-02-03 08:15:34 51°18.424 2°52.865 4 79 11 102180 84
2004-02-03 08:15:39 51°18.435 2°52.89 4.9 79 11 102180 84
2004-02-03 08:15:44 51°18.447 2°52.915 5.5 90 11 102180 84
2004-02-03 08:15:49 51°18.458 2°52.941 5.9 86 10.9 102170 84
2004-02-03 08:15:54 51°18.469 2°52.967 4.5 92 10.9 102170 84
2004-02-03 08:15:59 51°18.481 2°52.992 5.8 91 10.9 102180 84
2004-02-03 08:16:04 51°18.491 2°53.018 4.1 80 10.9 102180 84
2004-02-03 08:16:09 51°18.503 2°53.043 5 88 10.9 102180 84
2004-02-03 08:16:14 51°18.515 2°53.069 4.9 87 10.9 102180 84
2004-02-03 08:16:19 51°18.525 2°53.095 4.4 90 10.9 102170 84
2004-02-03 08:16:24 51°18.536 2°53.121 4.7 86 10.9 102170 84
2004-02-03 08:16:29 51°18.546 2°53.148 4.5 85 10.9 102170 84
2004-02-03 08:16:34 51°18.556 2°53.176 4.5 75 10.9 102170 84
2004-02-03 08:16:39 51°18.565 2°53.204 3.8 74 10.9 102180 84
2004-02-03 08:16:44 51°18.573 2°53.232 4.6 73 10.9 102180 84
2004-02-03 08:16:48 51°18.58 2°53.254 5.1 69 10.9 102170 84
2004-02-03 08:16:54 51°18.59 2°53.29 5.4 59 10.9 102170 84
2004-02-03 08:16:59 51°18.599 2°53.32 6.3 58 10.9 102180 84
2004-02-03 08:17:04 51°18.607 2°53.348 6.2 69 10.9 102180 84
2004-02-03 08:17:10 51°18.615 2°53.382 6.6 67 10.9 102180 84
2004-02-03 08:17:14 51°18.621 2°53.406 6.8 83 10.9 102180 84
2004-02-03 08:17:19 51°18.63 2°53.436 7.3 79 10.9 102180 84
2004-02-03 08:17:24 51°18.638 2°53.466 8.1 89 10.9 102180 84
2004-02-03 08:17:28 51°18.645 2°53.489 8.7 85 10.8 102180 84
2004-02-03 08:17:34 51°18.653 2°53.525 8.4 85 10.8 102180 84
2004-02-03 08:17:39 51°18.661 2°53.553 9.2 86 10.8 102170 84
2004-02-03 08:17:44 51°18.667 2°53.583 8.7 88 10.8 102170 84
2004-02-03 08:17:49 51°18.674 2°53.611 8 84 10.8 102170 84
2004-02-03 08:17:54 51°18.682 2°53.642 6.6 84 10.8 102170 84
2004-02-03 08:17:59 51°18.692 2°53.67 7.1 86 10.8 102160 84
2004-02-03 08:18:04 51°18.699 2°53.698 7.7 88 10.8 102160 84
2004-02-03 08:18:09 51°18.707 2°53.726 7.2 89 10.8 102170 84
2004-02-03 08:18:14 51°18.714 2°53.755 7 83 10.8 102170 84
2004-02-03 08:18:19 51°18.723 2°53.783 7.8 85 10.8 102160 84
2004-02-03 08:18:24 51°18.731 2°53.812 6.7 83 10.8 102160 84
2004-02-03 08:18:29 51°18.739 2°53.842 6.9 81 10.8 102170 85
2004-02-03 08:18:34 51°18.748 2°53.871 6.7 82 10.8 102170 85
2004-02-03 08:18:38 51°18.755 2°53.893 6.6 81 10.8 102170 85
2004-02-03 08:18:44 51°18.764 2°53.926 5.8 72 10.8 102170 85
2004-02-03 08:18:50 51°18.774 2°53.961 7.3 84 10.8 102170 85
2004-02-03 08:18:54 51°18.78 2°53.984 6.4 76 10.8 102170 85
2004-02-03 08:18:59 51°18.788 2°54.014 6 77 10.9 102180 85
2004-02-03 08:19:04 51°18.795 2°54.043 6.9 78 10.9 102180 85
2004-02-03 08:19:10 51°18.804 2°54.078 5.6 77 10.9 102220 85
2004-02-03 08:19:14 51°18.811 2°54.101 6.7 85 10.9 102220 85
2004-02-03 08:19:19 51°18.821 2°54.129 6.3 80 10.8 102180 85
2004-02-03 08:19:24 51°18.829 2°54.157 7.1 85 10.8 102180 85
2004-02-03 08:19:29 51°18.836 2°54.185 5.6 80 10.8 102180 85
2004-02-03 08:19:34 51°18.844 2°54.215 6.4 77 10.8 102180 85
2004-02-03 08:19:39 51°18.852 2°54.244 5.9 75 10.8 102180 85
2004-02-03 08:19:44 51°18.86 2°54.273 6.1 73 10.8 102180 85
2004-02-03 08:19:48 51°18.866 2°54.296 5.9 76 10.8 102180 85
2004-02-03 08:19:54 51°18.875 2°54.33 5.5 80 10.8 102180 85
2004-02-03 08:19:59 51°18.882 2°54.359 5.5 75 10.8 102180 85
2004-02-03 08:20:04 51°18.89 2°54.387 5.9 58 10.8 102180 85
2004-02-03 08:20:10 51°18.899 2°54.423 5.5 65 10.8 102180 85
2004-02-03 08:20:14 51°18.906 2°54.446 5.4 76 10.8 102180 85
2004-02-03 08:20:19 51°18.913 2°54.475 5 75 10.8 102180 85
2004-02-03 08:20:24 51°18.92 2°54.504 5.3 71 10.8 102180 85
2004-02-03 08:20:28 51°18.927 2°54.527 5.2 67 10.7 102190 84
2004-02-03 08:20:34 51°18.937 2°54.561 5.4 81 10.7 102190 84
2004-02-03 08:20:39 51°18.946 2°54.59 5.7 79 10.7 102190 84
2004-02-03 08:20:44 51°18.954 2°54.618 7.6 89 10.7 102190 84
2004-02-03 08:20:48 51°18.961 2°54.642 7.3 86 10.7 102180 85
2004-02-03 08:20:54 51°18.971 2°54.676 7.2 84 10.7 102180 85
2004-02-03 08:20:58 51°18.977 2°54.7 7.1 82 10.7 102190 85
2004-02-03 08:21:04 51°18.988 2°54.735 6.9 83 10.7 102190 85
2004-02-03 08:21:08 51°18.995 2°54.758 6.8 93 10.7 102180 85
2004-02-03 08:21:14 51°19.005 2°54.792 7.3 89 10.7 102180 85
2004-02-03 08:21:19 51°19.014 2°54.821 6.9 86 10.7 102180 85
2004-02-03 08:21:24 51°19.023 2°54.85 7.3 90 10.7 102180 85
2004-02-03 08:21:29 51°19.031 2°54.879 6.9 89 10.7 102180 85
2004-02-03 08:21:34 51°19.04 2°54.909 6.4 79 10.7 102180 85
2004-02-03 08:21:38 51°19.047 2°54.933 7 80 10.8 102180 85
2004-02-03 08:21:44 51°19.058 2°54.968 7.2 95 10.8 102180 85
2004-02-03 08:21:48 51°19.064 2°54.991 6.7 84 10.8 102180 86
2004-02-03 08:21:54 51°19.073 2°55.026 6.8 91 10.8 102180 86
2004-02-03 08:21:59 51°19.081 2°55.056 6 78 10.8 102180 86
2004-02-03 08:22:04 51°19.09 2°55.085 6.5 91 10.8 102180 86
2004-02-03 08:22:08 51°19.096 2°55.108 6.1 83 10.8 102190 85
2004-02-03 08:22:14 51°19.107 2°55.143 5.8 84 10.8 102190 85
2004-02-03 08:22:18 51°19.114 2°55.166 6.1 85 10.8 102190 85
2004-02-03 08:22:24 51°19.125 2°55.199 5.8 94 10.8 102190 85
2004-02-03 08:22:28 51°19.132 2°55.221 6.5 88 10.8 102180 85
2004-02-03 08:22:34 51°19.143 2°55.257 6.1 92 10.8 102180 85
2004-02-03 08:22:39 51°19.152 2°55.286 6.4 88 10.8 102190 85
2004-02-03 08:22:44 51°19.159 2°55.315 6.7 92 10.8 102190 85
2004-02-03 08:22:49 51°19.167 2°55.344 6 84 10.8 102190 86
2004-02-03 08:22:54 51°19.176 2°55.373 6.3 88 10.8 102190 86
2004-02-03 08:22:59 51°19.183 2°55.403 5.9 89 10.8 102180 86
2004-02-03 08:23:04 51°19.191 2°55.433 6.4 84 10.8 102180 86
2004-02-03 08:23:10 51°19.201 2°55.468 6.6 86 10.9 102190 86
2004-02-03 08:23:14 51°19.207 2°55.491 6.5 95 10.9 102190 86
2004-02-03 08:23:19 51°19.214 2°55.522 6.9 92 10.9 102190 86
2004-02-03 08:23:24 51°19.222 2°55.552 7.2 81 10.9 102190 86
2004-02-03 08:23:30 51°19.231 2°55.587 6.2 94 10.9 102180 86
2004-02-03 08:23:34 51°19.238 2°55.61 6.2 92 10.9 102180 86
2004-02-03 08:23:39 51°19.245 2°55.639 5.9 97 10.9 102180 86
2004-02-03 08:23:44 51°19.254 2°55.668 5.3 89 10.9 102180 86
2004-02-03 08:23:49 51°19.263 2°55.698 5.9 85 11 102180 86
2004-02-03 08:23:54 51°19.271 2°55.728 5.9 82 11 102180 86
2004-02-03 08:23:59 51°19.279 2°55.758 7 88 11 102180 86
2004-02-03 08:24:04 51°19.285 2°55.788 6.4 83 11 102180 86
2004-02-03 08:24:08 51°19.291 2°55.811 6.6 87 11 102190 86
2004-02-03 08:24:14 51°19.3 2°55.847 6.4 92 11 102190 86
2004-02-03 08:24:19 51°19.308 2°55.876 6.2 99 11 102190 85
2004-02-03 08:24:24 51°19.316 2°55.904 6.3 98 11 102190 85
2004-02-03 08:24:30 51°19.326 2°55.939 6 97 11 102190 85
2004-02-03 08:24:34 51°19.332 2°55.963 7 99 11 102190 85
2004-02-03 08:24:39 51°19.34 2°55.993 6.6 92 11 102180 85
2004-02-03 08:24:44 51°19.347 2°56.024 6.6 90 11 102180 85
2004-02-03 08:24:48 51°19.354 2°56.047 6.2 92 11 102190 85
2004-02-03 08:24:54 51°19.363 2°56.083 6.2 93 11 102190 85
2004-02-03 08:25:00 51°19.371 2°56.118 6.3 97 11 102180 85
2004-02-03 08:25:04 51°19.378 2°56.141 6.8 92 11 102180 85
2004-02-03 08:25:08 51°19.384 2°56.166 5.8 89 11 102190 85
2004-02-03 08:25:14 51°19.395 2°56.203 6.1 91 11 102190 85
2004-02-03 08:25:19 51°19.403 2°56.233 6.6 95 11 102180 85
2004-02-03 08:25:24 51°19.411 2°56.262 6.2 93 11 102180 85
2004-02-03 08:25:28 51°19.416 2°56.286 6.4 88 11 102190 85
2004-02-03 08:25:34 51°19.425 2°56.323 5.6 87 11 102190 85
2004-02-03 08:25:38 51°19.433 2°56.348 6 89 11 102180 85
2004-02-03 08:25:44 51°19.443 2°56.384 6.2 95 11 102180 85
2004-02-03 08:25:48 51°19.45 2°56.407 6.4 102 11 102180 85
2004-02-03 08:25:54 51°19.458 2°56.441 6 94 11 102180 85
2004-02-03 08:26:00 51°19.469 2°56.478 5.5 95 11 102180 85
2004-02-03 08:26:04 51°19.476 2°56.503 5.4 93 11 102180 85
2004-02-03 08:26:09 51°19.484 2°56.532 6.3 98 11 102190 85
2004-02-03 08:26:14 51°19.492 2°56.559 6.8 99 11 102190 85
2004-02-03 08:26:19 51°19.499 2°56.589 6 94 11 102180 85
2004-02-03 08:26:24 51°19.507 2°56.619 6.5 94 11 102180 85
2004-02-03 08:26:28 51°19.513 2°56.644 6.6 94 11 102180 85
2004-02-03 08:26:34 51°19.523 2°56.68 5.9 90 11 102180 85
2004-02-03 08:26:39 51°19.53 2°56.71 7 98 11 102190 85
2004-02-03 08:26:44 51°19.538 2°56.74 7 98 11 102190 85
2004-02-03 08:26:48 51°19.544 2°56.764 6.3 99 11 102190 85
2004-02-03 08:26:54 51°19.553 2°56.801 6 88 11 102190 85
2004-02-03 08:26:59 51°19.562 2°56.83 6 105 11 102180 85
2004-02-03 08:27:04 51°19.57 2°56.86 5.8 99 11 102180 85
2004-02-03 08:27:09 51°19.578 2°56.889 5.6 93 11 102180 85
2004-02-03 08:27:14 51°19.587 2°56.919 5.5 96 11 102180 85
2004-02-03 08:27:19 51°19.595 2°56.948 6.2 106 11.1 102190 85
2004-02-03 08:27:24 51°19.602 2°56.977 6.1 100 11.1 102190 85
2004-02-03 08:27:29 51°19.611 2°57.006 6 100 11.1 102190 85
2004-02-03 08:27:34 51°19.619 2°57.037 5.5 94 11.1 102190 85
2004-02-03 08:27:39 51°19.627 2°57.066 5.8 101 11.1 102190 85
2004-02-03 08:27:44 51°19.634 2°57.096 6.2 100 11.1 102190 85
2004-02-03 08:27:50 51°19.643 2°57.133 6.1 93 11.1 102180 85
2004-02-03 08:27:54 51°19.65 2°57.157 6.3 97 11.1 102180 85
2004-02-03 08:27:59 51°19.657 2°57.188 7.2 93 11.1 102190 85
2004-02-03 08:28:04 51°19.665 2°57.218 6.8 98 11.1 102190 85
2004-02-03 08:28:08 51°19.67 2°57.243 6.6 101 11.1 102190 85
2004-02-03 08:28:14 51°19.679 2°57.278 6.8 105 11.1 102190 85
2004-02-03 08:28:20 51°19.687 2°57.315 5.8 99 11.1 102190 85
2004-02-03 08:28:24 51°19.693 2°57.339 6 105 11.1 102190 85
2004-02-03 08:28:29 51°19.701 2°57.369 5.7 108 11.1 102190 85
2004-02-03 08:28:34 51°19.709 2°57.399 5.6 104 11.1 102190 85
2004-02-03 08:28:39 51°19.718 2°57.429 5.8 100 11.1 102190 85
2004-02-03 08:28:44 51°19.726 2°57.459 6.1 93 11.1 102190 85
2004-02-03 08:28:49 51°19.734 2°57.489 5.9 104 11.1 102190 85
2004-02-03 08:28:54 51°19.742 2°57.519 6.9 104 11.1 102190 85
2004-02-03 08:28:59 51°19.749 2°57.55 7.2 105 11.1 102190 85
2004-02-03 08:29:04 51°19.755 2°57.58 6.8 105 11.1 102190 85
2004-02-03 08:29:09 51°19.762 2°57.61 6.6 106 11.1 102200 85
2004-02-03 08:29:14 51°19.769 2°57.641 6.4 101 11.1 102200 85
2004-02-03 08:29:19 51°19.777 2°57.671 6.8 102 11.1 102190 85
2004-02-03 08:29:24 51°19.785 2°57.702 5.4 108 11.1 102190 85
2004-02-03 08:29:30 51°19.796 2°57.738 6.2 109 11.1 102190 85
2004-02-03 08:29:34 51°19.802 2°57.761 6.6 106 11.1 102190 85
2004-02-03 08:29:39 51°19.81 2°57.792 5.3 103 11.1 102200 85
2004-02-03 08:29:44 51°19.818 2°57.822 5.2 105 11.1 102200 85
2004-02-03 08:29:49 51°19.827 2°57.852 5.9 108 11.1 102200 85
2004-02-03 08:29:54 51°19.836 2°57.882 6.1 107 11.1 102200 85
2004-02-03 08:29:59 51°19.843 2°57.911 5.8 108 11.1 102200 85
2004-02-03 08:30:04 51°19.851 2°57.941 6.4 103 11.1 102200 85
2004-02-03 08:30:08 51°19.856 2°57.965 6.1 108 11.1 102200 85
2004-02-03 08:30:14 51°19.865 2°58.003 5.7 98 11.1 102200 85
2004-02-03 08:30:18 51°19.872 2°58.028 5.3 106 11.2 102200 85
2004-02-03 08:30:24 51°19.883 2°58.064 5.4 104 11.2 102200 85
2004-02-03 08:30:29 51°19.891 2°58.093 5.1 100 11.2 102200 85
2004-02-03 08:30:34 51°19.899 2°58.123 5.4 111 11.2 102200 85
2004-02-03 08:30:39 51°19.907 2°58.154 4.8 106 11.2 102200 85
2004-02-03 08:30:44 51°19.916 2°58.185 6.3 107 11.2 102200 85
2004-02-03 08:30:48 51°19.922 2°58.209 5.8 106 11.2 102200 85
2004-02-03 08:30:54 51°19.93 2°58.244 6 103 11.2 102200 85
2004-02-03 08:30:59 51°19.937 2°58.274 4.8 98 11.2 102200 84
2004-02-03 08:31:04 51°19.946 2°58.305 5.6 104 11.2 102200 84
2004-02-03 08:31:09 51°19.955 2°58.337 5.5 106 11.2 102210 84
2004-02-03 08:31:14 51°19.963 2°58.366 5.7 112 11.2 102210 84
2004-02-03 08:31:19 51°19.97 2°58.395 5.9 108 11.1 102200 84
2004-02-03 08:31:24 51°19.977 2°58.424 6.1 104 11.1 102200 84
2004-02-03 08:31:29 51°19.984 2°58.456 5.8 102 11.1 102200 84
2004-02-03 08:31:34 51°19.992 2°58.488 6.1 101 11.1 102200 84
2004-02-03 08:31:39 51°19.999 2°58.519 5.6 103 11.1 102210 84
2004-02-03 08:31:44 51°20.007 2°58.55 6.2 98 11.1 102210 84
2004-02-03 08:31:50 51°20.014 2°58.587 6.5 101 11.1 102200 84
2004-02-03 08:31:54 51°20.019 2°58.612 6.5 94 11.1 102200 84
2004-02-03 08:31:59 51°20.025 2°58.644 6.2 92 11.1 102200 84
2004-02-03 08:32:04 51°20.031 2°58.677 6.1 95 11.1 102200 84
2004-02-03 08:32:09 51°20.038 2°58.709 6 94 11.1 102200 84
2004-02-03 08:32:14 51°20.045 2°58.739 6.3 96 11.1 102200 84
2004-02-03 08:32:19 51°20.051 2°58.769 6.2 95 11.1 102200 84
2004-02-03 08:32:24 51°20.056 2°58.801 6 94 11.1 102200 84
2004-02-03 08:32:30 51°20.065 2°58.839 6.4 92 11.1 102200 84
2004-02-03 08:32:34 51°20.071 2°58.865 6.1 97 11.1 102200 84
2004-02-03 08:32:39 51°20.078 2°58.895 6.5 96 11.1 102200 84
2004-02-03 08:32:44 51°20.084 2°58.926 5.9 98 11.1 102200 84
2004-02-03 08:32:50 51°20.093 2°58.963 5.8 98 11 102200 84
2004-02-03 08:32:54 51°20.099 2°58.988 5.4 98 11 102200 84
2004-02-03 08:32:59 51°20.107 2°59.019 5.5 101 11 102200 84
2004-02-03 08:33:04 51°20.117 2°59.05 5.1 97 11 102200 84
2004-02-03 08:33:09 51°20.126 2°59.08 5.8 104 11 102200 84
2004-02-03 08:33:14 51°20.133 2°59.109 7 100 11 102200 84
2004-02-03 08:33:19 51°20.139 2°59.139 6.5 104 11 102200 84
2004-02-03 08:33:24 51°20.146 2°59.17 5.9 93 11 102200 84
2004-02-03 08:33:29 51°20.155 2°59.201 6.3 98 11 102200 84
2004-02-03 08:33:34 51°20.163 2°59.231 5.5 105 11 102200 84
2004-02-03 08:33:39 51°20.171 2°59.26 6.5 106 11 102200 84
2004-02-03 08:33:44 51°20.179 2°59.29 5 102 11 102200 84
2004-02-03 08:33:48 51°20.186 2°59.314 6.7 96 11 102190 84
2004-02-03 08:33:54 51°20.195 2°59.35 5.7 98 11 102190 84
2004-02-03 08:33:59 51°20.203 2°59.38 6.8 87 11 102190 84
2004-02-03 08:34:04 51°20.209 2°59.409 5.8 97 11 102190 84
2004-02-03 08:34:10 51°20.218 2°59.445 5.2 99 11 102190 84
2004-02-03 08:34:14 51°20.225 2°59.468 5.6 99 11 102190 84
2004-02-03 08:34:19 51°20.232 2°59.498 5.6 88 11 102200 84
2004-02-03 08:34:24 51°20.24 2°59.528 6.1 100 11 102200 84
2004-02-03 08:34:30 51°20.248 2°59.563 6.1 98 10.9 102190 84
2004-02-03 08:34:34 51°20.253 2°59.586 6.2 97 10.9 102190 84
2004-02-03 08:34:39 51°20.26 2°59.618 7.3 88 10.9 102200 84
2004-02-03 08:34:44 51°20.267 2°59.648 6.9 91 10.9 102200 84
2004-02-03 08:34:48 51°20.272 2°59.673 6.7 92 10.9 102190 84
2004-02-03 08:34:54 51°20.28 2°59.708 6.6 98 10.9 102190 84
2004-02-03 08:34:59 51°20.286 2°59.737 7 95 10.9 102190 84
2004-02-03 08:35:04 51°20.293 2°59.767 7.4 88 10.9 102190 84
2004-02-03 08:35:10 51°20.302 2°59.806 7.3 95 10.9 102190 84
2004-02-03 08:35:14 51°20.309 2°59.83 6.9 99 10.9 102190 84
2004-02-03 08:35:20 51°20.317 2°59.865 6.5 99 10.8 102190 84
2004-02-03 08:35:24 51°20.323 2°59.888 6.5 97 10.8 102190 84
2004-02-03 08:35:28 51°20.33 2°59.913 6.4 93 10.8 102190 84
2004-02-03 08:35:34 51°20.341 2°59.951 6.3 99 10.8 102190 84
2004-02-03 08:35:39 51°20.349 2°59.98 6.8 100 10.8 102190 84
2004-02-03 08:35:44 51°20.355 3°0.009 6.5 98 10.8 102190 84
2004-02-03 08:35:49 51°20.363 3°0.039 6.4 92 10.8 102190 84
2004-02-03 08:35:54 51°20.371 3°0.07 7.1 97 10.8 102190 84
2004-02-03 08:35:59 51°20.379 3°0.1 6.8 92 10.8 102190 84
2004-02-03 08:36:04 51°20.385 3°0.13 7.3 93 10.8 102190 84
2004-02-03 08:36:10 51°20.394 3°0.167 7.6 93 10.8 102190 84
2004-02-03 08:36:14 51°20.399 3°0.191 7.7 90 10.8 102190 84
2004-02-03 08:36:19 51°20.405 3°0.222 7 92 10.8 102190 84
2004-02-03 08:36:24 51°20.412 3°0.253 7.1 96 10.8 102190 84
2004-02-03 08:36:30 51°20.422 3°0.289 6.6 94 10.8 102190 84
2004-02-03 08:36:34 51°20.428 3°0.313 7.2 93 10.8 102190 84
2004-02-03 08:36:39 51°20.436 3°0.343 6.7 94 10.8 102190 84
2004-02-03 08:36:44 51°20.443 3°0.374 7.8 94 10.8 102190 84
2004-02-03 08:36:49 51°20.45 3°0.405 7.3 97 10.8 102190 85
2004-02-03 08:36:54 51°20.457 3°0.436 7.4 92 10.8 102190 85
2004-02-03 08:36:59 51°20.464 3°0.467 7.3 93 10.8 102200 85
2004-02-03 08:37:04 51°20.471 3°0.497 6.7 90 10.8 102200 85
2004-02-03 08:37:10 51°20.479 3°0.533 6.5 92 10.8 102190 85
2004-02-03 08:37:14 51°20.484 3°0.557 7 89 10.8 102190 85
2004-02-03 08:37:19 51°20.493 3°0.588 6.7 92 10.8 102200 85
2004-02-03 08:37:24 51°20.501 3°0.619 7.1 95 10.8 102200 85
2004-02-03 08:37:30 51°20.511 3°0.655 6.9 90 10.8 102190 85
2004-02-03 08:37:34 51°20.516 3°0.679 7.7 95 10.8 102190 85
2004-02-03 08:37:39 51°20.523 3°0.709 7.3 93 10.8 102200 85
2004-02-03 08:37:44 51°20.529 3°0.74 7.1 91 10.8 102200 85
2004-02-03 08:37:48 51°20.535 3°0.765 7.5 88 10.8 102200 85
2004-02-03 08:37:54 51°20.543 3°0.802 8 89 10.8 102200 85
2004-02-03 08:37:59 51°20.55 3°0.833 7.2 87 10.8 102200 85
2004-02-03 08:38:04 51°20.556 3°0.864 7 82 10.8 102200 85
2004-02-03 08:38:10 51°20.565 3°0.902 7.6 88 10.8 102190 85
2004-02-03 08:38:14 51°20.57 3°0.926 7.8 85 10.8 102190 85
2004-02-03 08:38:19 51°20.577 3°0.957 7.4 84 10.8 102200 85
2004-02-03 08:38:24 51°20.583 3°0.988 7.4 89 10.8 102200 85
2004-02-03 08:38:30 51°20.592 3°1.025 7.7 93 10.8 102200 85
2004-02-03 08:38:34 51°20.598 3°1.05 6.7 89 10.8 102200 85
2004-02-03 08:38:39 51°20.607 3°1.081 6.9 94 10.8 102200 85
2004-02-03 08:38:44 51°20.615 3°1.111 6.9 95 10.8 102200 85
2004-02-03 08:38:50 51°20.623 3°1.148 7.3 91 10.7 102200 85
2004-02-03 08:38:54 51°20.629 3°1.172 7.7 85 10.7 102200 85
2004-02-03 08:38:59 51°20.635 3°1.204 7.6 86 10.8 102200 85
2004-02-03 08:39:04 51°20.643 3°1.236 7.5 84 10.8 102200 85
2004-02-03 08:39:08 51°20.649 3°1.261 7.5 86 10.7 102200 85
2004-02-03 08:39:14 51°20.658 3°1.298 8 91 10.7 102200 85
2004-02-03 08:39:20 51°20.665 3°1.334 7.5 84 10.8 102200 85
2004-02-03 08:39:24 51°20.67 3°1.359 7.5 81 10.8 102200 85
2004-02-03 08:39:30 51°20.679 3°1.398 6.8 80 10.7 102200 85
2004-02-03 08:39:34 51°20.686 3°1.423 7.6 85 10.7 102200 85
2004-02-03 08:39:39 51°20.693 3°1.453 7.5 83 10.7 102200 85
2004-02-03 08:39:44 51°20.701 3°1.483 6.6 80 10.7 102200 85
2004-02-03 08:39:49 51°20.708 3°1.515 7.6 81 10.7 102200 85
2004-02-03 08:39:54 51°20.715 3°1.546 6.8 80 10.7 102200 85
2004-02-03 08:39:59 51°20.721 3°1.578 6.8 80 10.7 102200 85
2004-02-03 08:40:04 51°20.727 3°1.609 6 76 10.7 102200 85
2004-02-03 08:40:09 51°20.733 3°1.64 6.7 82 10.7 102200 85
2004-02-03 08:40:14 51°20.74 3°1.671 6.7 80 10.7 102200 85
2004-02-03 08:40:19 51°20.748 3°1.702 7.1 80 10.7 102200 85
2004-02-03 08:40:24 51°20.756 3°1.733 6.6 83 10.7 102200 85
2004-02-03 08:40:30 51°20.766 3°1.769 8.1 89 10.7 102200 85
2004-02-03 08:40:34 51°20.772 3°1.793 6.4 80 10.7 102200 85
2004-02-03 08:40:39 51°20.78 3°1.823 8.2 85 10.7 102220 85
2004-02-03 08:40:44 51°20.789 3°1.854 8.4 83 10.7 102220 85
2004-02-03 08:40:48 51°20.795 3°1.879 7.6 86 10.6 102200 85
2004-02-03 08:40:54 51°20.804 3°1.917 6.2 79 10.6 102200 85
2004-02-03 08:40:59 51°20.813 3°1.948 6.6 79 10.6 102200 85
2004-02-03 08:41:04 51°20.821 3°1.98 6.5 76 10.6 102200 85
2004-02-03 08:41:10 51°20.83 3°2.016 6.7 82 10.6 102210 85
2004-02-03 08:41:14 51°20.835 3°2.04 6.1 78 10.6 102210 85
2004-02-03 08:41:19 51°20.842 3°2.071 5.9 75 10.6 102250 85
2004-02-03 08:41:24 51°20.85 3°2.103 6.4 77 10.6 102250 85
2004-02-03 08:41:30 51°20.861 3°2.14 6.4 74 10.6 102210 85
2004-02-03 08:41:34 51°20.868 3°2.164 7.2 83 10.6 102210 85
2004-02-03 08:41:39 51°20.875 3°2.193 6.7 79 10.6 102200 85
2004-02-03 08:41:44 51°20.883 3°2.223 5.9 77 10.6 102200 85
2004-02-03 08:41:50 51°20.894 3°2.261 6.5 79 10.6 102200 85
2004-02-03 08:41:54 51°20.902 3°2.286 6.5 82 10.6 102200 85
2004-02-03 08:41:59 51°20.911 3°2.316 6.8 82 10.6 102200 85
2004-02-03 08:42:04 51°20.919 3°2.345 6.4 78 10.6 102200 85
2004-02-03 08:42:08 51°20.925 3°2.369 6.6 77 10.6 102200 85
2004-02-03 08:42:14 51°20.935 3°2.406 5.8 79 10.6 102200 85
2004-02-03 08:42:20 51°20.945 3°2.443 6.6 82 10.6 102200 85
2004-02-03 08:42:24 51°20.951 3°2.467 7.1 80 10.6 102200 85
2004-02-03 08:42:30 51°20.96 3°2.504 7.1 81 10.6 102200 85
2004-02-03 08:42:34 51°20.967 3°2.528 6.8 78 10.6 102200 85
2004-02-03 08:42:39 51°20.975 3°2.559 6.1 77 10.6 102200 85
2004-02-03 08:42:44 51°20.983 3°2.589 5.9 77 10.6 102200 85
2004-02-03 08:42:50 51°20.993 3°2.625 6.4 80 10.6 102200 86
2004-02-03 08:42:54 51°21 3°2.648 7.1 83 10.6 102200 86
2004-02-03 08:42:59 51°21.009 3°2.678 6.3 80 10.6 102200 86
2004-02-03 08:43:04 51°21.017 3°2.709 6.9 74 10.6 102200 86
2004-02-03 08:43:09 51°21.026 3°2.739 6.1 81 10.6 102200 86
2004-02-03 08:43:14 51°21.035 3°2.769 7 81 10.6 102200 86
2004-02-03 08:43:19 51°21.043 3°2.799 7.5 80 10.6 102200 86
2004-02-03 08:43:24 51°21.051 3°2.83 6.4 78 10.6 102200 86
2004-02-03 08:43:30 51°21.062 3°2.866 7.2 81 10.6 102200 86
2004-02-03 08:43:34 51°21.068 3°2.89 7 81 10.6 102200 86
2004-02-03 08:43:39 51°21.076 3°2.919 5.8 80 10.6 102200 86
2004-02-03 08:43:44 51°21.085 3°2.95 7.1 79 10.6 102200 86
2004-02-03 08:43:48 51°21.092 3°2.974 6.2 79 10.6 102190 86
2004-02-03 08:43:54 51°21.102 3°3.009 7.6 83 10.6 102190 86
2004-02-03 08:43:59 51°21.11 3°3.041 8 81 10.6 102200 86
2004-02-03 08:44:04 51°21.118 3°3.072 7.2 80 10.6 102200 86
2004-02-03 08:44:09 51°21.126 3°3.102 8.3 80 10.6 102200 86
2004-02-03 08:44:14 51°21.133 3°3.133 6.6 79 10.6 102200 86
2004-02-03 08:44:19 51°21.139 3°3.165 7.6 77 10.6 102200 86
2004-02-03 08:44:24 51°21.146 3°3.198 7.6 73 10.6 102200 86
2004-02-03 08:44:30 51°21.156 3°3.238 7.9 75 10.6 102190 86
2004-02-03 08:44:34 51°21.163 3°3.263 6.7 79 10.6 102190 86
2004-02-03 08:44:39 51°21.171 3°3.293 9.2 81 10.6 102190 86
2004-02-03 08:44:44 51°21.177 3°3.323 7.7 73 10.6 102190 86
2004-02-03 08:44:48 51°21.182 3°3.348 8.5 78 10.5 102190 86
2004-02-03 08:44:54 51°21.191 3°3.387 8.6 82 10.5 102190 86
2004-02-03 08:44:59 51°21.198 3°3.418 8.5 84 10.6 102190 86
2004-02-03 08:45:04 51°21.206 3°3.449 8 81 10.6 102190 86
2004-02-03 08:45:10 51°21.216 3°3.486 7.8 82 10.6 102190 86
2004-02-03 08:45:14 51°21.222 3°3.51 7.6 81 10.6 102190 86
2004-02-03 08:45:19 51°21.23 3°3.541 7.8 80 10.6 102190 86
2004-02-03 08:45:24 51°21.237 3°3.571 8.1 81 10.6 102190 86
2004-02-03 08:45:30 51°21.245 3°3.609 8.2 82 10.6 102190 86
2004-02-03 08:45:34 51°21.252 3°3.635 7.7 79 10.6 102190 86
2004-02-03 08:45:39 51°21.26 3°3.667 9.1 88 10.6 102190 86
2004-02-03 08:45:44 51°21.268 3°3.697 8.7 82 10.6 102190 86
2004-02-03 08:45:48 51°21.275 3°3.721 8.1 82 10.6 102190 86
2004-02-03 08:45:54 51°21.283 3°3.758 8.3 81 10.6 102190 86
2004-02-03 08:45:58 51°21.289 3°3.784 8.3 81 10.6 102200 86
2004-02-03 08:46:04 51°21.298 3°3.823 8.7 85 10.6 102200 86
2004-02-03 08:46:09 51°21.306 3°3.854 8.7 86 10.6 102190 86
2004-02-03 08:46:14 51°21.314 3°3.884 8.5 87 10.6 102190 86
2004-02-03 08:46:20 51°21.322 3°3.921 7.6 81 10.6 102190 86
2004-02-03 08:46:24 51°21.329 3°3.946 8.6 83 10.6 102190 86
2004-02-03 08:46:28 51°21.336 3°3.972 7.4 80 10.7 102190 86
2004-02-03 08:46:34 51°21.347 3°4.01 8.2 83 10.7 102190 86
2004-02-03 08:46:39 51°21.354 3°4.04 8.9 86 10.6 102200 86
2004-02-03 08:46:44 51°21.362 3°4.071 8.7 81 10.6 102200 86
2004-02-03 08:46:49 51°21.37 3°4.102 8.9 82 10.7 102200 86
2004-02-03 08:46:54 51°21.377 3°4.134 8.5 84 10.7 102200 86
2004-02-03 08:46:58 51°21.383 3°4.16 9.3 87 10.7 102200 86
2004-02-03 08:47:04 51°21.392 3°4.197 9.2 85 10.7 102200 86
2004-02-03 08:47:10 51°21.4 3°4.235 7.9 91 10.7 102190 86
2004-02-03 08:47:14 51°21.406 3°4.259 8.8 88 10.7 102190 86
2004-02-03 08:47:19 51°21.414 3°4.291 8 84 10.7 102190 86
2004-02-03 08:47:24 51°21.422 3°4.323 7.8 84 10.7 102190 86
2004-02-03 08:47:29 51°21.431 3°4.354 8.2 89 10.7 102200 86
2004-02-03 08:47:34 51°21.439 3°4.385 8.8 85 10.7 102200 86
2004-02-03 08:47:39 51°21.446 3°4.416 8.2 85 10.7 102200 86
2004-02-03 08:47:44 51°21.453 3°4.447 8.5 82 10.7 102200 86
2004-02-03 08:47:50 51°21.462 3°4.485 7.7 81 10.7 102200 86
2004-02-03 08:47:54 51°21.469 3°4.51 8.8 85 10.7 102200 86
2004-02-03 08:47:59 51°21.476 3°4.542 7.5 82 10.7 102200 86
2004-02-03 08:48:04 51°21.483 3°4.573 8.1 85 10.7 102200 86
2004-02-03 08:48:08 51°21.489 3°4.598 8.3 82 10.7 102200 86
2004-02-03 08:48:14 51°21.498 3°4.636 8.1 80 10.7 102200 86
2004-02-03 08:48:18 51°21.504 3°4.661 8.6 84 10.7 102200 86
2004-02-03 08:48:24 51°21.512 3°4.699 9 84 10.7 102200 86
2004-02-03 08:48:29 51°21.519 3°4.731 8.3 83 10.7 102200 86
2004-02-03 08:48:34 51°21.527 3°4.764 7.9 81 10.7 102200 86
2004-02-03 08:48:40 51°21.536 3°4.802 8.2 85 10.7 102200 86
2004-02-03 08:48:44 51°21.542 3°4.828 8.6 81 10.7 102200 86
2004-02-03 08:48:48 51°21.547 3°4.852 9.2 84 10.7 102200 86
2004-02-03 08:48:54 51°21.554 3°4.889 7.8 80 10.7 102200 86
2004-02-03 08:49:00 51°21.562 3°4.929 8.4 83 10.7 102200 86
2004-02-03 08:49:04 51°21.567 3°4.956 7.7 83 10.7 102200 86
2004-02-03 08:49:10 51°21.578 3°4.994 8.7 83 10.7 102190 86
2004-02-03 08:49:14 51°21.583 3°5.02 8.4 84 10.7 102190 86
2004-02-03 08:49:19 51°21.591 3°5.05 9 87 10.8 102190 86
2004-02-03 08:49:24 51°21.596 3°5.081 8.1 93 10.8 102190 86
2004-02-03 08:49:30 51°21.605 3°5.12 7.8 79 10.8 102190 86
2004-02-03 08:49:34 51°21.61 3°5.147 8.6 92 10.8 102190 86
2004-02-03 08:49:39 51°21.618 3°5.179 8.1 81 10.8 102190 86
2004-02-03 08:49:44 51°21.624 3°5.211 8.4 86 10.8 102190 86
2004-02-03 08:49:49 51°21.631 3°5.242 8.8 83 10.8 102190 86
2004-02-03 08:49:54 51°21.636 3°5.274 8.3 84 10.8 102190 86
2004-02-03 08:49:59 51°21.642 3°5.306 8.8 85 10.8 102190 86
2004-02-03 08:50:04 51°21.649 3°5.338 8 82 10.8 102190 86
2004-02-03 08:50:09 51°21.656 3°5.369 8.4 85 10.8 102190 86
2004-02-03 08:50:14 51°21.662 3°5.4 7.6 82 10.8 102190 86
2004-02-03 08:50:20 51°21.671 3°5.438 6.5 81 10.8 102190 86
2004-02-03 08:50:24 51°21.676 3°5.464 9.2 88 10.8 102190 86
2004-02-03 08:50:30 51°21.684 3°5.502 7 81 10.8 102190 86
2004-02-03 08:50:34 51°21.689 3°5.527 8.8 83 10.8 102190 86
2004-02-03 08:50:39 51°21.695 3°5.558 9.6 85 10.8 102190 86
2004-02-03 08:50:44 51°21.701 3°5.589 6.5 74 10.8 102190 86
2004-02-03 08:50:49 51°21.707 3°5.622 7.9 83 10.8 102190 86
2004-02-03 08:50:54 51°21.714 3°5.655 8.1 85 10.8 102190 86
2004-02-03 08:50:59 51°21.721 3°5.686 8.9 85 10.9 102190 86
2004-02-03 08:51:04 51°21.727 3°5.717 8.8 82 10.9 102190 86
2004-02-03 08:51:10 51°21.734 3°5.754 7.6 81 10.9 102190 86
2004-02-03 08:51:14 51°21.739 3°5.78 8.2 83 10.9 102190 86
2004-02-03 08:51:19 51°21.746 3°5.813 7 79 10.9 102190 86
2004-02-03 08:51:24 51°21.753 3°5.847 8.2 82 10.9 102190 86
2004-02-03 08:51:30 51°21.762 3°5.885 8.5 84 10.9 102190 86
2004-02-03 08:51:34 51°21.767 3°5.909 7.8 80 10.9 102190 86
2004-02-03 08:51:39 51°21.772 3°5.94 9 85 10.9 102190 86
2004-02-03 08:51:44 51°21.778 3°5.973 6.9 79 10.9 102190 86
2004-02-03 08:51:50 51°21.785 3°6.013 8.7 83 10.9 102190 86
2004-02-03 08:51:54 51°21.79 3°6.039 7.8 82 10.9 102190 86
2004-02-03 08:51:59 51°21.797 3°6.071 7.7 82 10.9 102190 86
2004-02-03 08:52:04 51°21.803 3°6.102 7.3 83 10.9 102190 86
2004-02-03 08:52:09 51°21.81 3°6.134 8.4 87 10.9 102190 86
2004-02-03 08:52:14 51°21.817 3°6.166 8.3 82 10.9 102190 86
2004-02-03 08:52:19 51°21.824 3°6.198 8.3 82 10.9 102190 85
2004-02-03 08:52:24 51°21.831 3°6.231 7.4 83 10.9 102190 85
2004-02-03 08:52:29 51°21.837 3°6.263 7 74 10.9 102190 85
2004-02-03 08:52:34 51°21.843 3°6.295 8.6 83 10.9 102190 85
2004-02-03 08:52:40 51°21.85 3°6.333 7.9 81 10.9 102200 85
2004-02-03 08:52:44 51°21.855 3°6.36 8.5 82 10.9 102200 85
2004-02-03 08:52:49 51°21.86 3°6.392 8 80 10.9 102190 85
2004-02-03 08:52:54 51°21.865 3°6.424 8.1 82 10.9 102190 85
2004-02-03 08:52:59 51°21.871 3°6.457 7.4 75 10.9 102190 85
2004-02-03 08:53:04 51°21.877 3°6.489 8 81 10.9 102190 85
2004-02-03 08:53:10 51°21.884 3°6.528 7 82 10.9 102190 85
2004-02-03 08:53:14 51°21.889 3°6.554 7.6 81 10.9 102190 85
2004-02-03 08:53:20 51°21.897 3°6.593 6.8 78 10.9 102200 85
2004-02-03 08:53:24 51°21.902 3°6.618 7 79 10.9 102200 85
2004-02-03 08:53:30 51°21.909 3°6.656 7.7 81 10.9 102190 85
2004-02-03 08:53:34 51°21.914 3°6.682 7 79 10.9 102190 85
2004-02-03 08:53:39 51°21.921 3°6.715 7.9 83 10.9 102200 85
2004-02-03 08:53:44 51°21.928 3°6.747 7.4 81 10.9 102200 85
2004-02-03 08:53:50 51°21.936 3°6.786 6.9 80 10.9 102190 85
2004-02-03 08:53:54 51°21.941 3°6.812 8.3 79 10.9 102190 85
2004-02-03 08:53:58 51°21.945 3°6.837 8.4 81 10.9 102190 85
2004-02-03 08:54:04 51°21.954 3°6.876 8.1 84 10.9 102190 85
2004-02-03 08:54:10 51°21.962 3°6.915 6.7 78 10.9 102190 85
2004-02-03 08:54:14 51°21.967 3°6.941 9 85 10.9 102190 85
2004-02-03 08:54:19 51°21.973 3°6.973 7.8 84 10.9 102200 85
2004-02-03 08:54:24 51°21.98 3°7.005 7.4 78 10.9 102200 85
2004-02-03 08:54:30 51°21.988 3°7.045 8.3 80 10.9 102190 85
2004-02-03 08:54:34 51°21.993 3°7.072 7.8 76 10.9 102190 85
2004-02-03 08:54:39 51°21.999 3°7.105 6.7 73 10.9 102200 85
2004-02-03 08:54:44 51°22.003 3°7.139 7.2 73 10.9 102200 85
2004-02-03 08:54:49 51°22.007 3°7.172 7.9 77 11 102190 85
2004-02-03 08:54:54 51°22.009 3°7.206 8.9 80 11 102190 85
2004-02-03 08:54:59 51°22.013 3°7.24 7.5 76 11 102190 85
2004-02-03 08:55:04 51°22.017 3°7.275 7.7 78 11 102190 85
2004-02-03 08:55:10 51°22.022 3°7.315 8.4 79 11 102200 85
2004-02-03 08:55:14 51°22.024 3°7.341 8.3 80 11 102200 85
2004-02-03 08:55:19 51°22.027 3°7.375 7.4 78 11 102180 85
2004-02-03 08:55:24 51°22.03 3°7.409 8.8 74 11 102180 85
2004-02-03 08:55:30 51°22.034 3°7.451 8.7 80 11 102190 85
2004-02-03 08:55:34 51°22.036 3°7.478 7.6 73 11 102190 85
2004-02-03 08:55:39 51°22.038 3°7.512 8.8 78 11 102190 85
2004-02-03 08:55:44 51°22.041 3°7.544 7.9 76 11 102190 85
2004-02-03 08:55:50 51°22.044 3°7.584 8.3 72 11 102190 85
2004-02-03 08:55:54 51°22.047 3°7.612 8.4 72 11 102190 85
2004-02-03 08:55:59 51°22.05 3°7.647 8.7 72 11 102190 85
2004-02-03 08:56:04 51°22.053 3°7.682 7.5 74 11 102190 85
2004-02-03 08:56:09 51°22.056 3°7.715 7.9 72 11 102190 85
2004-02-03 08:56:14 51°22.059 3°7.749 7.2 77 11 102190 85
2004-02-03 08:56:19 51°22.064 3°7.783 8.2 75 11 102190 85
2004-02-03 08:56:24 51°22.068 3°7.817 7.4 71 11 102190 85
2004-02-03 08:56:30 51°22.074 3°7.856 7.9 70 11 102190 85
2004-02-03 08:56:34 51°22.078 3°7.882 6.9 76 11 102190 85
2004-02-03 08:56:39 51°22.083 3°7.915 7.2 76 11 102190 85
2004-02-03 08:56:44 51°22.089 3°7.948 6.9 72 11 102190 85
2004-02-03 08:56:50 51°22.096 3°7.989 7.5 75 11.1 102190 85
2004-02-03 08:56:54 51°22.1 3°8.016 7 69 11.1 102190 85
2004-02-03 08:56:59 51°22.104 3°8.049 7.6 71 11.1 102200 84
2004-02-03 08:57:04 51°22.108 3°8.083 7.8 65 11.1 102200 84
2004-02-03 08:57:08 51°22.112 3°8.11 7.2 75 11.1 102200 84
2004-02-03 08:57:14 51°22.117 3°8.149 6.8 73 11.1 102200 84
2004-02-03 08:57:19 51°22.122 3°8.182 6.8 77 11.1 102200 84
2004-02-03 08:57:24 51°22.128 3°8.215 5.5 74 11.1 102200 84
2004-02-03 08:57:30 51°22.134 3°8.254 6.8 71 11.1 102200 84
2004-02-03 08:57:34 51°22.139 3°8.28 6.9 69 11.1 102200 84
2004-02-03 08:57:39 51°22.144 3°8.314 7.7 62 11.1 102200 84
2004-02-03 08:57:44 51°22.15 3°8.348 7.4 74 11.1 102200 84
2004-02-03 08:57:50 51°22.157 3°8.387 6.1 75 11.1 102200 84
2004-02-03 08:57:55 51°22.16 3°8.42 7.9 74 11.1 102200 84
2004-02-03 08:57:59 51°22.164 3°8.446 7.1 73 11.1 102200 84
2004-02-03 08:58:04 51°22.169 3°8.48 8.1 79 11.1 102200 84
2004-02-03 08:58:08 51°22.173 3°8.507 8.1 74 11.1 102200 84
2004-02-03 08:58:14 51°22.18 3°8.547 8 68 11.1 102200 84
2004-02-03 08:58:20 51°22.185 3°8.587 7.6 72 11.1 102200 84
2004-02-03 08:58:24 51°22.189 3°8.614 6.7 74 11.1 102200 84
2004-02-03 08:58:30 51°22.195 3°8.655 7.4 72 11.1 102200 84
2004-02-03 08:58:34 51°22.199 3°8.682 6.9 73 11.1 102200 84
2004-02-03 08:58:40 51°22.205 3°8.722 6.6 69 11.1 102200 84
2004-02-03 08:58:44 51°22.209 3°8.749 6.9 70 11.1 102200 84
2004-02-03 08:58:50 51°22.216 3°8.789 6.2 80 11.1 102200 84
2004-02-03 08:58:54 51°22.219 3°8.816 6.2 78 11.1 102200 84
2004-02-03 08:58:59 51°22.224 3°8.849 8.1 68 11.1 102200 84
2004-02-03 08:59:04 51°22.228 3°8.883 7.7 74 11.1 102200 84
2004-02-03 08:59:10 51°22.235 3°8.924 7.9 65 11.1 102200 84
2004-02-03 08:59:14 51°22.238 3°8.95 8.1 72 11.1 102200 84
2004-02-03 08:59:19 51°22.243 3°8.984 7.8 66 11.1 102200 84
2004-02-03 08:59:24 51°22.248 3°9.017 7.4 73 11.1 102200 84
2004-02-03 08:59:29 51°22.253 3°9.051 7.2 70 11.1 102200 84
2004-02-03 08:59:34 51°22.258 3°9.085 7 76 11.1 102200 84
2004-02-03 08:59:39 51°22.264 3°9.119 7.6 75 11.1 102200 84
2004-02-03 08:59:44 51°22.268 3°9.153 8.3 76 11.1 102200 84
2004-02-03 08:59:50 51°22.273 3°9.193 7.2 71 11.1 102200 84
2004-02-03 08:59:54 51°22.277 3°9.219 7.7 77 11.1 102200 84
2004-02-03 08:59:59 51°22.281 3°9.253 6.9 73 11.1 102200 84
2004-02-03 09:00:04 51°22.286 3°9.287 7.1 75 11.1 102200 84
2004-02-03 09:00:10 51°22.29 3°9.327 7.5 74 11.1 102200 84
2004-02-03 09:00:14 51°22.294 3°9.354 7.2 75 11.1 102200 84
2004-02-03 09:00:20 51°22.299 3°9.395 7.5 71 11.1 102250 84
2004-02-03 09:00:24 51°22.302 3°9.422 7 72 11.1 102250 84
2004-02-03 09:00:30 51°22.307 3°9.462 7.7 72 11.1 102200 84
2004-02-03 09:00:34 51°22.31 3°9.489 8.3 71 11.1 102200 84
2004-02-03 09:00:39 51°22.315 3°9.524 7.4 75 11.1 102200 84
2004-02-03 09:00:44 51°22.319 3°9.558 6.7 76 11.1 102200 84
2004-02-03 09:00:50 51°22.324 3°9.598 6.7 79 11.1 102200 84
2004-02-03 09:00:54 51°22.327 3°9.625 7.1 70 11.1 102200 84
2004-02-03 09:00:59 51°22.331 3°9.66 7.8 66 11.1 102200 84
2004-02-03 09:01:04 51°22.336 3°9.695 8.4 81 11.1 102200 84
2004-02-03 09:01:10 51°22.341 3°9.735 8.3 68 11.1 102200 84
2004-02-03 09:01:14 51°22.344 3°9.762 8.3 80 11.1 102200 84
2004-02-03 09:01:19 51°22.349 3°9.795 8.2 79 11.1 102200 84
2004-02-03 09:01:24 51°22.352 3°9.83 8 78 11.1 102200 84
2004-02-03 09:01:30 51°22.359 3°9.872 8 71 11.2 102200 84
2004-02-03 09:01:34 51°22.362 3°9.899 7.9 79 11.2 102200 84
2004-02-03 09:01:39 51°22.367 3°9.933 6.3 72 11.2 102200 84
2004-02-03 09:01:44 51°22.371 3°9.966 8.1 70 11.2 102200 84
2004-02-03 09:01:49 51°22.376 3°10 7.6 66 11.2 102200 84
2004-02-03 09:01:54 51°22.38 3°10.034 8.2 70 11.2 102200 84
2004-02-03 09:01:59 51°22.383 3°10.07 8.1 67 11.2 102210 84
2004-02-03 09:02:04 51°22.389 3°10.105 8.3 67 11.2 102210 84
2004-02-03 09:02:08 51°22.392 3°10.132 8.3 72 11.2 102210 84
2004-02-03 09:02:14 51°22.397 3°10.172 7.1 76 11.2 102210 84
2004-02-03 09:02:19 51°22.402 3°10.205 8.4 80 11.2 102210 84
2004-02-03 09:02:24 51°22.405 3°10.24 7.2 72 11.2 102210 84
2004-02-03 09:02:30 51°22.411 3°10.282 7.5 76 11.2 102200 84
2004-02-03 09:02:34 51°22.415 3°10.309 8.3 80 11.2 102200 84
2004-02-03 09:02:39 51°22.418 3°10.343 8.6 73 11.2 102200 84
2004-02-03 09:02:44 51°22.423 3°10.377 8.8 62 11.2 102200 84
2004-02-03 09:02:50 51°22.427 3°10.418 9 85 11.3 102200 84
2004-02-03 09:02:54 51°22.43 3°10.445 8.9 65 11.3 102200 84
2004-02-03 09:02:59 51°22.433 3°10.479 7.4 72 11.3 102210 84
2004-02-03 09:03:04 51°22.437 3°10.513 8.1 72 11.3 102210 84
2004-02-03 09:03:10 51°22.441 3°10.555 8.3 69 11.3 102200 83
2004-02-03 09:03:14 51°22.443 3°10.582 9.3 67 11.3 102200 83
2004-02-03 09:03:19 51°22.446 3°10.617 8.4 62 11.3 102210 83
2004-02-03 09:03:24 51°22.449 3°10.65 8.9 70 11.3 102210 83
2004-02-03 09:03:28 51°22.452 3°10.677 7.6 74 11.3 102210 83
2004-02-03 09:03:34 51°22.455 3°10.719 8.8 68 11.3 102210 83
2004-02-03 09:03:39 51°22.458 3°10.754 8.8 64 11.3 102210 83
2004-02-03 09:03:44 51°22.46 3°10.788 8.5 68 11.3 102210 83
2004-02-03 09:03:50 51°22.463 3°10.83 8.9 66 11.3 102200 83
2004-02-03 09:03:54 51°22.465 3°10.858 8.9 66 11.3 102200 83
2004-02-03 09:03:59 51°22.468 3°10.892 9.1 63 11.4 102200 83
2004-02-03 09:04:04 51°22.47 3°10.927 8.2 62 11.4 102200 83
2004-02-03 09:04:10 51°22.473 3°10.969 8.8 67 11.3 102200 83
2004-02-03 09:04:14 51°22.475 3°10.998 9.3 61 11.3 102200 83